Погода в Новом

Россия / Еврейская автономная область     47°48′34″N   132°20′29″E
темп.,
°C
ветер,
м/с
пор.,
м/с
влажн.,
%
обл.,
%
осадки,
мм/ч
давл.,
гПа
погр.,
м
24 апреля, сб
сб2401:00+10сз61031100 0.0 1024863
04:00+7сз61227100 0.0 1024893
07:00+6сз6102998 0.0 1024944
10:00+6ссз81026100 0.0 1024934
13:00+11ссз810180 0.0 10221896
16:00+12сз1013198 0.0 10212995
19:00+11сз914215 0.0 10203164
22:00+8сз511270 0.0 1021339
25 апреля, вс
вс2501:00+5з5103247 0.0 1019217
04:00+3с7104712 0.0 1019457
07:00+3ссз813500 0.0 10201129
10:00+6с79260 0.0 10221879
13:00+10ссз68160 0.0 10212755
16:00+12ссз68140 0.0 10202900
19:00+11ссз57180 0.0 10202659
22:00+7зсз49271 0.0 1021184
26 апреля, пн
пн2601:00+5сз35315 0.0 102176
04:00+4з343252 0.0 102058
07:00+3з35355 0.0 1019112
10:00+11зюз45215 0.0 1019737
13:00+15юз332072 0.0 10161794
16:00+17ююз341873 0.0 10132015
19:00+17ю352028 0.0 1012777
22:00+12ююв352722 0.0 101267
27 апреля, вт
вт2701:00+10ююв51236100 0.0 1011258
04:00+9ююв61356100 0.0 1009312
07:00+8ю4116283 0.0 1008368
10:00+16ююз71134100 0.0 10061043
13:00+19юз91136100 0.0 10052226
16:00+14ююз71361100 0.1 10041255
19:00+12юз41078100 0.9 1003587
22:00+11ю51288100 2.3 1003675
28 апреля, ср
ср2801:00+11ююз71381100 0.1 1003788
04:00+10ююз511825 0.4 1003320
07:00+8ююз49795 0.0 1004285
10:00+14юз7124197 0.0 10042081
13:00+16юз8112398 0.0 10043225
16:00+17зюз71020100 0.0 10033605
19:00+16з682352 0.0 10041749
22:00+11ююз11320 0.0 100511